Home > Weather > Sibiu > Past weeks

Flag for Romania Past Weather in Sibiu, Romania — Yesterday and Last 2 Weeks

Now
68 °F

Clear.


Feels Like: 68 °F
Forecast: 58 / 83 °F
Wind: 12 mph from West

Location: Sibiu Airport

Current Time: Aug 29, 2016 at 10:58:01 PM

Latest Report: Aug 29, 2016 at 10:00 PM


Visibility: 10 mi

Pressure: 30.01 "Hg

Humidity: 69%

Dew Point: 57 °F

Location of SibiuLocation

Past Weather in Sibiu — Graph

°F

Sibiu Temperature Yesterday

Maximum temperature yesterday: 81 °F (at 4:30 PM)
Minimum temperature yesterday: 48 °F (at 6:00 AM)
Average temperature yesterday: 63 °F

High & Low Weather Summary for the Past Weeks

 TemperatureHumidityPressure
High84 °F (Aug 29, 3:30 PM)100% (Aug 17, 4:00 AM)30.30 "Hg (Aug 17, 4:00 AM)
Low48 °F (Aug 27, 5:30 AM)28% (Aug 27, 4:00 PM)29.83 "Hg (Aug 17, 4:30 PM)
Average67 °F72%30.10 "Hg
* Reported Aug 14 9:00 PM — Aug 29 9:00 PM, Sibiu, Weather by CustomWeather, © 2016

Note: Actual official high and low records may vary slightly from our data, if they occured in-between our weather recording intervals... More about our weather records

Advertising

Sibiu Weather History for the Previous 24 Hours

Scroll right to see more
 ConditionsComfort  
Time TempWeatherWind HumidityBarometerVisibility
9:00 PM
Mon, Aug 29
68 °FSunny.7 mph73%30.01 "Hg10 mi
8:30 PM68 °FSunny.8 mph73%30.01 "Hg10 mi
8:00 PM79 °FSunny.5 mph48%29.98 "Hg10 mi
7:30 PM79 °FSunny.5 mph48%29.98 "Hg10 mi
7:00 PM81 °FSunny.6 mph39%30.01 "Hg10 mi
6:30 PM82 °FPassing clouds.6 mph37%30.01 "HgN/A
6:00 PM82 °FPassing clouds.6 mph40%30.01 "HgN/A
5:30 PM84 °FPassing clouds.3 mph37%30.01 "HgN/A
5:00 PM84 °FPassing clouds.3 mph40%30.01 "HgN/A
4:30 PM82 °FPassing clouds.3 mph40%30.01 "HgN/A
4:00 PM82 °FPassing clouds.3 mph40%30.01 "HgN/A
3:30 PM84 °FPassing clouds.3 mph35%30.01 "HgN/A
3:00 PM82 °FSunny.5 mph40%30.04 "Hg10 mi
2:30 PM82 °FSunny.5 mph35%30.04 "Hg10 mi
2:00 PM82 °FPassing clouds.6 mph37%30.04 "HgN/A
1:30 PM81 °FPassing clouds.7 mph42%30.04 "HgN/A
1:00 PM79 °FSunny.3 mph42%30.04 "Hg10 mi
12:30 PM79 °FPassing clouds.3 mph45%30.07 "HgN/A
12:00 PM77 °FSunny.2 mph47%30.07 "Hg10 mi
11:30 AM75 °FSunny.2 mph50%30.07 "Hg10 mi
11:00 AM75 °FSunny.2 mph50%30.09 "Hg10 mi
10:30 AM72 °FSunny.1 mph57%30.09 "Hg10 mi
10:00 AM70 °FSunny.1 mph60%30.09 "Hg10 mi
9:30 AM66 °FSunny.1 mph73%30.09 "Hg10 mi
9:00 AM63 °FPassing clouds.3 mph77%30.09 "HgN/A
8:30 AM61 °FSunny.2 mph83%30.09 "Hg10 mi
8:00 AM57 °FSunny.2 mph94%30.09 "Hg10 mi
7:30 AM55 °FFog.2 mph100%30.09 "HgN/A
7:00 AM54 °FClear.2 mph94%30.09 "Hg10 mi
6:30 AM54 °FFog.1 mph94%30.09 "Hg3 mi
6:00 AM55 °FClear.1 mph94%30.09 "Hg10 mi
5:30 AM55 °FClear.5 mph94%30.09 "Hg10 mi
5:00 AM55 °FClear.3 mph94%30.09 "Hg10 mi
4:00 AM55 °FClear.1 mph94%30.09 "Hg10 mi
2:00 AM57 °FClear.2 mph88%30.12 "Hg10 mi
1:00 AM59 °FClear.3 mph82%30.12 "Hg10 mi
12:00 AM63 °FClear.2 mph77%30.12 "Hg10 mi
11:00 PM
Sun, Aug 28
63 °FClear.2 mph77%30.12 "Hg10 mi
Weather by CustomWeather, © 2016

See weather overviewHow to use our weather pages